• In Deutschland
  • Länderverzeichnis
  • Für 7 Tage
  • Wassertemperatur
  • Satellitenkarten
  • Wetterkarte
  • Widgets
  • user-avatar
    Anmelden

    Stündliche Wetter Baalbek

    Heute, 19 November, Sonntag

    Zeit Temperatur Niederschläge Wind Luftdruck Luftfeuchtigkeit
    00:00 +16°C° 0,1 mm 1 m/S 659 mmHg 36%
    01:00 +15°C° 0,1 mm 1 m/S 658 mmHg 37%
    02:00 +15°C° 0 mm 2 m/S 658 mmHg 31%
    03:00 +15°C° 0,1 mm 1 m/S 658 mmHg 34%
    04:00 +15°C° 0,1 mm 1 m/S 658 mmHg 36%
    05:00 +14°C° 0,1 mm 1 m/S 658 mmHg 38%
    06:00 +15°C° 0,2 mm 1 m/S 658 mmHg 36%
    07:00 +16°C° 0,2 mm 1 m/S 659 mmHg 34%
    08:00 +16°C° 0 mm 1 m/S 659 mmHg 35%
    09:00 +17°C° 0 mm 2 m/S 660 mmHg 34%
    10:00 +18°C° 0 mm 2 m/S 660 mmHg 33%
    11:00 +18°C° 0 mm 2 m/S 660 mmHg 33%
    12:00 +18°C° 0,1 mm 2 m/S 660 mmHg 34%
    13:00 +19°C° 0,1 mm 2 m/S 660 mmHg 35%
    14:00 +19°C° 0 mm 2 m/S 660 mmHg 34%
    15:00 +18°C° 0,1 mm 2 m/S 660 mmHg 40%
    16:00 +17°C° 0,1 mm 2 m/S 660 mmHg 47%
    17:00 +16°C° 0,1 mm 2 m/S 660 mmHg 53%
    18:00 +15°C° 0 mm 2 m/S 659 mmHg 58%
    19:00 +14°C° 0 mm 2 m/S 659 mmHg 63%
    20:00 +13°C° 0 mm 1 m/S 659 mmHg 67%
    21:00 +13°C° 0 mm 1 m/S 659 mmHg 70%
    22:00 +12°C° 0 mm 1 m/S 659 mmHg 73%
    23:00 +12°C° 0 mm 1 m/S 659 mmHg 76%

    Morgen, 20 November, Montag

    Zeit Temperatur Niederschläge Wind Luftdruck Luftfeuchtigkeit
    00:00 +11°C° 0 mm 1 m/S 659 mmHg 78%
    01:00 +11°C° 0 mm 1 m/S 659 mmHg 80%
    02:00 +11°C° 0 mm 1 m/S 659 mmHg 82%
    03:00 +10°C° 0 mm 1 m/S 659 mmHg 83%
    04:00 +10°C° 0 mm 1 m/S 659 mmHg 84%
    05:00 +10°C° 0 mm 1 m/S 658 mmHg 85%
    06:00 +10°C° 0 mm 1 m/S 659 mmHg 80%
    07:00 +11°C° 0 mm 1 m/S 659 mmHg 76%
    08:00 +12°C° 0 mm 1 m/S 659 mmHg 71%
    09:00 +13°C° 0 mm 2 m/S 659 mmHg 63%
    10:00 +14°C° 0 mm 2 m/S 659 mmHg 55%
    11:00 +15°C° 0 mm 2 m/S 659 mmHg 47%
    12:00 +14°C° 0 mm 3 m/S 659 mmHg 46%
    13:00 +14°C° 0 mm 3 m/S 659 mmHg 44%
    14:00 +16°C° 0 mm 3 m/S 659 mmHg 43%
    15:00 +14°C° 0,1 mm 3 m/S 658 mmHg 49%
    16:00 +13°C° 0,1 mm 3 m/S 658 mmHg 54%
    17:00 +13°C° 0,1 mm 2 m/S 658 mmHg 60%
    18:00 +13°C° 0 mm 2 m/S 658 mmHg 63%
    19:00 +12°C° 0 mm 2 m/S 658 mmHg 67%
    20:00 +12°C° 0 mm 2 m/S 657 mmHg 71%
    21:00 +12°C° 0 mm 2 m/S 657 mmHg 74%
    22:00 +10°C° 0 mm 3 m/S 657 mmHg 77%
    23:00 +10°C° 0 mm 3 m/S 657 mmHg 79%

    übermorgen, 21 November, Dienstag

    Zeit Temperatur Niederschläge Wind Luftdruck Luftfeuchtigkeit
    00:00 +10°C° 0 mm 3 m/S 656 mmHg 80%
    01:00 +10°C° 0 mm 3 m/S 656 mmHg 81%
    02:00 +8°C° 0 mm 4 m/S 656 mmHg 81%
    03:00 +8°C° 0,1 mm 4 m/S 656 mmHg 82%
    04:00 +8°C° 0,1 mm 5 m/S 655 mmHg 82%
    05:00 +8°C° 0,1 mm 5 m/S 655 mmHg 82%
    06:00 +9°C° 0,3 mm 6 m/S 655 mmHg 80%
    07:00 +9°C° 0,3 mm 7 m/S 655 mmHg 79%
    08:00 +9°C° 0,3 mm 7 m/S 655 mmHg 77%
    09:00 +9°C° 0,8 mm 8 m/S 655 mmHg 77%
    10:00 +8°C° 0,8 mm 9 m/S 655 mmHg 77%
    11:00 +10°C° 0,8 mm 9 m/S 655 mmHg 77%
    12:00 +8°C° 0,3 mm 9 m/S 655 mmHg 73%
    13:00 +8°C° 0,3 mm 10 m/S 654 mmHg 69%
    14:00 +8°C° 0,3 mm 10 m/S 654 mmHg 66%
    15:00 +7°C° 0,2 mm 9 m/S 654 mmHg 68%
    16:00 +7°C° 0,2 mm 8 m/S 654 mmHg 70%
    17:00 +7°C° 0,2 mm 6 m/S 654 mmHg 73%
    18:00 +7°C° 0,1 mm 6 m/S 655 mmHg 73%
    19:00 +7°C° 0,1 mm 5 m/S 655 mmHg 74%
    20:00 +7°C° 0,1 mm 5 m/S 655 mmHg 74%
    21:00 +6°C° 0,1 mm 4 m/S 656 mmHg 75%
    22:00 +6°C° 0,1 mm 4 m/S 656 mmHg 75%
    23:00 +7°C° 0,1 mm 3 m/S 656 mmHg 76%

    22 November, Mittwoch

    Zeit Temperatur Niederschläge Wind Luftdruck Luftfeuchtigkeit
    00:00 +7°C° 0,1 mm 3 m/S 656 mmHg 77%
    01:00 +7°C° 0,1 mm 3 m/S 656 mmHg 77%
    02:00 +7°C° 0,1 mm 3 m/S 656 mmHg 78%
    03:00 +7°C° 0,1 mm 3 m/S 656 mmHg 78%
    04:00 +5°C° 0,1 mm 3 m/S 656 mmHg 78%
    05:00 +5°C° 0,1 mm 3 m/S 656 mmHg 78%
    06:00 +7°C° 0,1 mm 3 m/S 656 mmHg 75%
    07:00 +7°C° 0,1 mm 3 m/S 657 mmHg 72%
    08:00 +7°C° 0,1 mm 3 m/S 657 mmHg 69%
    09:00 +8°C° 0 mm 3 m/S 658 mmHg 63%
    10:00 +9°C° 0 mm 3 m/S 658 mmHg 56%
    11:00 +10°C° 0 mm 3 m/S 658 mmHg 50%
    12:00 +10°C° 0 mm 3 m/S 658 mmHg 48%
    13:00 +10°C° 0 mm 3 m/S 658 mmHg 46%
    14:00 +10°C° 0 mm 3 m/S 658 mmHg 45%
    15:00 +9°C° 0 mm 3 m/S 658 mmHg 48%
    16:00 +9°C° 0 mm 3 m/S 658 mmHg 52%
    17:00 +8°C° 0 mm 3 m/S 658 mmHg 55%
    18:00 +7°C° 0 mm 2 m/S 658 mmHg 58%
    19:00 +7°C° 0 mm 2 m/S 659 mmHg 60%
    20:00 +7°C° 0 mm 2 m/S 659 mmHg 63%
    21:00 +6°C° 0 mm 2 m/S 659 mmHg 64%
    22:00 +6°C° 0 mm 2 m/S 659 mmHg 65%
    23:00 +6°C° 0 mm 2 m/S 659 mmHg 66%

    23 November, Donnerstag

    Zeit Temperatur Niederschläge Wind Luftdruck Luftfeuchtigkeit
    00:00 +5°C° 0 mm 2 m/S 659 mmHg 67%
    01:00 +6°C° 0 mm 1 m/S 658 mmHg 68%
    02:00 +6°C° 0 mm 1 m/S 658 mmHg 68%
    03:00 +5°C° 0 mm 1 m/S 658 mmHg 69%
    04:00 +5°C° 0 mm 1 m/S 658 mmHg 70%
    05:00 +5°C° 0 mm 1 m/S 658 mmHg 70%
    06:00 +6°C° 0 mm 1 m/S 659 mmHg 66%
    07:00 +7°C° 0 mm 1 m/S 659 mmHg 61%
    08:00 +8°C° 0 mm 1 m/S 660 mmHg 56%
    09:00 +8°C° 0 mm 2 m/S 660 mmHg 53%
    10:00 +9°C° 0 mm 2 m/S 660 mmHg 50%
    11:00 +10°C° 0 mm 2 m/S 660 mmHg 46%
    12:00 +10°C° 0 mm 2 m/S 660 mmHg 47%
    13:00 +10°C° 0 mm 2 m/S 660 mmHg 47%
    14:00 +10°C° 0 mm 2 m/S 660 mmHg 47%
    15:00 +10°C° 0 mm 2 m/S 659 mmHg 51%
    16:00 +9°C° 0 mm 2 m/S 659 mmHg 54%
    17:00 +9°C° 0 mm 1 m/S 659 mmHg 57%
    18:00 +9°C° 0 mm 1 m/S 660 mmHg 60%
    19:00 +9°C° 0 mm 1 m/S 660 mmHg 63%
    20:00 +8°C° 0 mm 1 m/S 660 mmHg 66%
    21:00 +8°C° 0 mm 1 m/S 660 mmHg 69%
    22:00 +7°C° 0 mm 1 m/S 660 mmHg 72%
    23:00 +7°C° 0 mm 1 m/S 660 mmHg 75%

    24 November, Freitag

    Zeit Temperatur Niederschläge Wind Luftdruck Luftfeuchtigkeit
    00:00 +7°C° 0 mm 1 m/S 660 mmHg 76%
    01:00 +6°C° 0 mm 1 m/S 660 mmHg 77%
    02:00 +6°C° 0 mm 1 m/S 660 mmHg 77%
    03:00 +6°C° 0 mm 1 m/S 660 mmHg 78%
    04:00 +6°C° 0 mm 1 m/S 660 mmHg 78%
    05:00 +5°C° 0 mm 1 m/S 660 mmHg 78%
    06:00 +6°C° 0 mm 1 m/S 661 mmHg 75%
    07:00 +6°C° 0 mm 1 m/S 661 mmHg 72%
    08:00 +7°C° 0 mm 1 m/S 662 mmHg 68%
    09:00 +8°C° 0 mm 1 m/S 662 mmHg 62%
    10:00 +8°C° 0 mm 2 m/S 662 mmHg 57%
    11:00 +9°C° 0 mm 2 m/S 662 mmHg 51%
    12:00 +9°C° 0 mm 2 m/S 662 mmHg 49%
    13:00 +9°C° 0 mm 2 m/S 662 mmHg 47%
    14:00 +10°C° 0 mm 2 m/S 662 mmHg 45%
    15:00 +9°C° 0 mm 2 m/S 662 mmHg 48%
    16:00 +9°C° 0 mm 1 m/S 662 mmHg 50%
    17:00 +9°C° 0 mm 1 m/S 662 mmHg 52%
    18:00 +8°C° 0 mm 1 m/S 662 mmHg 54%
    19:00 +8°C° 0 mm 1 m/S 662 mmHg 55%
    20:00 +7°C° 0 mm 1 m/S 662 mmHg 57%
    21:00 +7°C° 0 mm 1 m/S 662 mmHg 58%
    22:00 +7°C° 0 mm 1 m/S 662 mmHg 59%
    23:00 +6°C° 0 mm 1 m/S 662 mmHg 59%
    Mehr zeigen